Location: City of Moscow
(46.7306°N, 116.9989°W)
Time: 07:53:21
(UTC+00:00)

USA 234 - Pass Details

Date: 10 March 2026
Orbit: 1102 x 1106 km, 123.0° (Epoch: 4 January)

Event Time Altitude Azimuth Distance (km) Brightness Sun altitude
Exits shadow 03:54:50 38° 81° (E) 1,635 3.7 -22.6°
Maximum altitude 03:57:13 56° 25° (NNE) 1,292 3.5 -23.0°
Drops below altitude 10° 04:03:36 10° 309° (NW) 2,971 6.5 -24.1°
Sets 04:06:07 0° 306° (NW) 3,931 7.4 -24.5°
